Location: Culleoka
(33.1312°N, 96.4919°W)
Time: 15:37:28
(UTC+00:00)

H-2A R/B - Pass Details

Date: 07 July 2022
Orbit: 576 x 652 km, 98.5° (Epoch: 14 August)

Event Time Altitude Azimuth Distance (km) Brightness Sun altitude
Rises 02:36:11 0° 13° (NNE) 2,955 5.9 -11.1°
Reaches altitude 10° 02:38:24 10° 15° (NNE) 2,049 5.0 -11.4°
Maximum altitude 02:42:53 81° 103° (ESE) 662 2.1 -12.2°
Drops below altitude 10° 02:47:22 10° 191° (S) 2,049 4.5 -12.9°
Sets 02:49:34 0° 192° (SSW) 2,955 5.3 -13.3°
